Weather in Ekaterinovka

Russia / Saratov Oblast     52°03′01″N   44°20′42″E
temp.,
°C
wind,
m/s
gust,
m/s
humid.,
%
clouds,
%
prec.,
mm/h
press.,
hPa
HPBL,
m
18 may, wed
wed1801:00+6w61195100 0.8 1004706
04:00+6w61194100 0.9 1004661
07:00+6w61096100 0.6 1005565
10:00+8wnw5790100 0.7 1007712
13:00+12wnw466799 0.4 10081352
16:00+11nw356998 0.5 1009724
19:00+12nnw246842 0.1 1010272
22:00+8w117518 0.1 101212
19 may, thu
thu1901:00+7w227630 0.0 101215
04:00+8wnw228293 0.0 101339
07:00+8nnw34875 0.0 1013177
10:00+12nw45668 0.0 10141048
13:00+14wnw665349 0.3 10131833
16:00+15nw5649100 0.3 10132064
19:00+13nw46625 0.0 1012791
22:00+10nw2578100 0.1 1013163
20 may, fri
fri2001:00+7nw368981 0.1 1012127
04:00+5nnw49955 0.1 1012205
07:00+6nnw610841 0.0 1014435
10:00+9nnw810585 0.0 10141412
13:00+10nnw8114496 0.0 10152348
16:00+11nnw8941100 0.0 10152293
19:00+10nnw685260 0.0 10151939
22:00+5nw36685 0.0 101691
21 may, sat
sat2101:00+4nw226934 0.0 101515
04:00+3wnw2271100 0.0 101417
07:00+5wnw1267100 0.0 1013103
10:00+10nnw1248100 0.0 10111348
13:00+12n1240100 0.0 10092232
16:00+12n234585 0.0 10081769
19:00+11nne44555 0.0 10081071
22:00+6n33704 0.0 100928
22 may, sun
sun2201:00+4nne348052 0.0 100957
04:00+4nne22847 0.0 100910
07:00+6nne2275100 0.0 1009159
10:00+10n345591 0.0 10081463
13:00+11n334695 0.1 10071851
16:00+12nnw224289 0.1 10071965
19:00+11nne4556100 0.0 1007464
22:00+7ne497196 0.0 1008206